#timestamp,LO_Frequency,Hit,StdDev 
1711490415.2,286047006.9,N
1711490435.0,286047010.8,N
1711490435.9,286047010.8,N
1711490455.8,286047007.9,N
1711490475.6,286047008.5,N
1711490495.5,286047011.7,N
1711490515.3,286047014.7,N
1711490535.1,286047012.0,N
1711490555.9,286047016.3,Y
1711490575.7,286047011.3,P
1711490595.5,286047013.6,P
1711490615.4,286047013.1,P
1711490635.2,286047012.6,Y
1711490655.1,286047001.8,P
1711490656.0,286047001.8,N
1711490675.8,286047003.9,N
1711490695.6,286047003.0,N
1711490715.5,286047005.5,N
1711490735.3,286047003.5,N
1711490755.2,286047007.5,N
1711490775.9,286047007.6,N
1711490795.7,286047006.3,N
1711490815.6,286047010.3,Y
1711490835.4,286047003.3,P
1711490855.2,286047003.5,P
1711490875.1,286047004.0,P
1711490876.0,286047004.0,Y
1711490895.8,286046998.4,P
1711490915.7,286047000.1,N
1711490935.5,286047001.7,N
1711490955.3,286047000.5,N
1711490975.2,286047000.7,N
1711490995.0,286047004.0,N
1711490995.9,286047004.0,N
1711491015.7,286046999.7,N
1711491035.6,286047003.5,N
1711491055.4,286046999.5,N
1711491075.3,286046998.7,N
1711491095.1,286047002.2,N
1711491096.0,286047002.2,N
1711491115.8,286047007.6,Y
1711491135.7,286047002.1,P
1711491155.5,286047003.8,P
1711491175.4,286047004.4,P
1711491195.2,286047002.9,N
1711491215.0,286047007.6,Y
1711491215.9,286047007.6,P
1711491235.8,286046998.1,N
1711491255.6,286047002.1,N
1711491275.4,286047000.9,N
1711491295.3,286046998.6,N
1711491315.1,286047000.5,N
1711491335.9,286046998.1,N
1711491355.7,286047002.8,N
1711491375.5,286047001.0,N
1711491395.4,286046997.2,N
1711491415.2,286046997.0,N
1711491435.0,286046999.0,N
1711491435.9,286046999.0,N
1711491455.8,286047000.8,N
1711491475.6,286047000.4,N
1711491495.5,286047004.3,N
1711491515.3,286046998.1,N
1711491535.1,286046996.5,N
1711491555.9,286046995.1,N
1711491575.7,286046997.2,N
1711491595.5,286046997.5,N
1711491615.4,286046998.8,N
1711491635.2,286047000.3,N
1711491655.1,286047002.2,N
1711491656.0,286047002.2,N
1711491675.8,286047001.5,N
1711491695.6,286047002.9,N
1711491715.5,286047006.1,N
1711491735.3,286047005.0,N
1711491755.2,286047007.8,N
1711491775.9,286047003.4,N
1711491795.7,286047000.3,N
1711491815.6,286047002.8,N
1711491835.4,286046998.4,N
1711491855.2,286047005.0,N
1711491875.1,286047003.2,N
1711491876.0,286047003.2,N
1711491895.8,286047002.3,N
1711491915.7,286047003.6,N
1711491935.5,286047001.5,N
1711491955.3,286047005.1,N
1711491975.2,286047010.8,Y
1711491995.0,286047007.2,P
1711491995.9,286047007.2,N
1711492015.7,286047007.6,N
1711492035.6,286047009.7,Y
1711492055.4,286047006.6,P
1711492075.3,286047007.8,P
1711492095.1,286047006.1,P
1711492096.0,286047006.1,Y
1711492115.8,286047000.8,P
1711492135.7,286047001.5,N
1711492155.5,286047007.3,N
1711492175.4,286047003.1,N
1711492195.2,286046994.9,N
1711492215.0,286046998.8,N
1711492215.9,286046998.8,N
1711492235.8,286047001.2,N
1711492255.6,286046998.6,N
1711492275.4,286046997.8,N
1711492295.3,286046995.7,N
1711492315.1,286046997.4,N
1711492335.9,286046998.6,N
1711492355.7,286047000.4,N
1711492375.5,286047002.9,N
1711492395.4,286047009.1,N
1711492415.2,286047008.2,N
1711492435.0,286047009.9,N
1711492435.9,286047009.9,N
1711492455.8,286047010.0,N
1711492475.6,286047012.3,N
1711492495.5,286047009.7,N
1711492515.3,286047009.5,N
1711492535.1,286047011.1,N
1711492555.9,286047014.8,N
1711492575.7,286047019.5,Y
1711492595.5,286047009.5,P
1711492615.4,286047010.2,P
1711492635.2,286047013.9,P
1711492655.1,286047017.0,Y
1711492656.0,286047017.0,P
1711492675.8,286047006.0,N
1711492695.6,286047005.9,N
1711492715.5,286047003.9,N
1711492735.3,286047003.4,N
1711492755.1,286047004.5,N
1711492775.9,286047006.3,N
1711492795.7,286047008.5,N
1711492815.6,286047010.2,N
1711492835.4,286047007.0,N
1711492855.2,286047010.5,N
1711492875.1,286047011.2,Y
1711492876.0,286047011.2,P
1711492895.8,286047001.4,N
1711492915.7,286047000.7,N
1711492935.5,286047004.1,N
1711492955.3,286047001.2,N
1711492975.2,286046996.6,N
1711492995.0,286046994.9,N
1711492995.9,286046994.9,N
1711493015.7,286046995.1,N
1711493035.6,286046996.7,N
1711493055.4,286046997.1,N
1711493075.3,286046996.6,N
1711493095.1,286046996.0,N
1711493115.8,286046999.3,N
1711493135.7,286046998.1,N
1711493155.5,286047000.8,N
1711493175.4,286047000.8,N
1711493195.2,286047005.3,N
1711493215.0,286047004.3,N
1711493215.9,286047004.3,N
1711493235.8,286047003.7,N
1711493255.6,286047007.3,N
1711493275.5,286047006.4,N
1711493295.3,286047009.5,N
1711493315.1,286047023.6,Y
1711493335.9,286047008.2,P
1711493355.7,286047004.5,N
1711493375.6,286047005.8,N
1711493395.4,286047009.1,Y
1711493415.2,286047007.5,P
1711493435.1,286047000.1,N
1711493436.0,286047000.1,N
1711493455.8,286047001.8,N
1711493475.7,286047005.6,N
1711493495.5,286047001.0,N
1711493515.3,286047001.6,N
1711493535.2,286046991.8,Y
1711493555.0,286046992.5,P
1711493555.9,286046992.5,N
1711493575.8,286046986.3,N
1711493595.6,286046988.2,N
1711493615.4,286046983.1,N
1711493635.3,286046985.6,N
1711493655.1,286046987.4,N
1711493675.9,286046985.6,N
1711493695.7,286046983.8,N
1711493715.5,286046982.3,Y
1711493735.4,286046998.2,P
1711493755.2,286047000.5,N
1711493775.1,286046997.0,N
1711493776.0,286046997.0,N
1711493795.8,286046996.4,N
1711493815.6,286046994.2,N
1711493835.5,286046994.6,N
1711493855.3,286046992.4,N
1711493875.2,286046994.8,N
1711493895.9,286046990.2,Y
1711493915.7,286046997.8,P
1711493935.6,286046993.9,P
1711493955.4,286046994.6,P
1711493975.3,286046995.0,Y
1711493995.1,286047000.8,P
1711493996.0,286047000.8,N
